Wind_Speed
25 25 25 25 26 26 27 29 30 31 32 33 32 32 32 32 31 31 32 32 33 33 34 35 35 35 36 37 37 38 39 40 41 41 42 42 43 43 42 41 42 43
24 25 25 26 26 27 29 30 31 32 32 32 32 32 31 31 31 31 32 32 33 34 35 35 36 36 36 37 38 38 39 40 42 42 43 43 43 43 43 43 43 44
24 24 25 26 27 28 29 29 30 31 31 30 30 31 31 31 31 31 32 33 33 34 35 35 35 36 36 37 38 39 40 41 42 43 43 44 44 43 44 44 45 46
25 24 24 26 27 28 28 28 30 30 30 30 30 29 29 29 30 31 32 33 34 34 35 35 35 36 36 37 38 39 41 42 43 44 44 45 44 44 45 45 47 48
25 24 24 25 26 26 27 29 31 31 30 30 30 29 28 28 29 31 33 34 34 35 35 36 37 37 37 38 39 39 40 42 43 44 44 45 45 45 45 46 47 48
25 25 25 25 25 25 28 30 32 31 31 32 31 29 28 28 30 31 32 34 35 36 37 38 39 39 39 39 39 40 41 42 43 44 44 44 45 45 45 45 46 47
25 26 26 26 25 26 29 32 32 32 33 33 32 30 30 30 31 32 33 35 37 38 39 39 40 40 41 40 41 41 42 43 44 44 44 44 44 44 43 44 45 48
26 26 26 26 27 28 30 32 33 32 32 33 32 30 30 31 31 33 35 36 38 39 40 41 42 42 42 42 42 43 44 44 44 45 44 43 43 43 43 44 46 48
27 27 27 27 28 29 30 32 32 32 32 32 32 31 30 30 31 33 35 37 38 40 42 43 44 45 45 44 44 44 44 45 45 45 44 43 44 44 44 45 46 47
28 28 28 28 29 30 31 32 32 33 33 33 33 32 32 31 32 35 37 38 40 42 43 45 46 47 47 47 46 46 45 45 46 47 47 45 45 45 45 46 47 47
29 28 29 30 31 32 32 32 34 34 34 35 35 35 34 34 34 36 38 39 41 43 44 46 47 48 49 49 49 47 45 45 47 49 48 47 46 47 47 47 47 46
29 29 31 32 33 34 33 34 36 36 37 37 37 36 35 35 36 37 39 41 43 44 46 47 48 49 49 50 50 48 46 45 46 47 48 48 48 48 48 47 47 46
29 29 31 32 34 35 35 36 38 39 39 39 39 38 37 37 38 39 41 43 44 45 47 48 49 50 50 50 50 50 49 48 46 46 46 47 48 48 47 47 47 46
28 29 30 32 34 35 36 38 40 40 40 40 39 39 39 39 39 41 43 44 46 47 48 49 50 51 51 52 52 51 50 48 47 47 47 46 45 45 45 46 46 46
28 30 32 34 35 37 39 40 40 40 40 40 40 40 40 40 41 43 44 46 47 49 50 50 51 51 52 53 53 52 51 49 49 49 48 45 43 42 43 44 45 45
29 31 34 36 38 40 41 41 41 40 40 40 40 40 41 41 43 44 46 48 50 51 51 51 51 52 53 53 53 52 51 49 49 48 45 43 42 43 44 44 44 44
30 33 36 37 39 41 42 41 41 40 41 41 41 41 42 43 45 46 48 50 51 51 52 52 52 52 52 51 51 51 50 49 48 46 44 42 43 44 46 45 44 43
31 34 36 38 40 42 42 41 41 41 42 43 42 42 44 45 46 47 49 51 51 51 51 52 52 51 51 50 50 50 49 47 46 44 43 42 42 44 45 45 43 40
33 35 37 39 42 42 41 41 42 43 44 44 44 45 45 46 47 48 50 51 50 50 51 52 51 51 50 49 49 48 48 46 45 43 40 39 41 44 45 42 39 36
34 36 39 42 42 41 41 41 43 44 44 45 46 47 47 48 49 50 50 50 50 51 51 51 51 51 50 48 46 46 45 44 43 40 36 37 41 44 43 38 34 32
36 38 41 42 41 40 41 43 43 44 45 46 47 47 48 50 51 51 51 51 51 50 50 50 49 50 49 47 44 42 40 40 40 36 34 37 41 42 39 33 29 29
37 40 42 41 39 40 42 43 44 45 46 47 47 47 48 51 53 53 53 52 50 50 50 49 48 48 49 47 43 39 37 38 39 36 33 35 39 38 34 31 28 28
38 41 41 39 39 41 41 42 45 46 46 47 47 47 49 51 53 54 53 51 50 50 50 49 47 46 47 46 43 40 38 39 39 36 33 34 37 36 33 31 30 29
39 42 41 40 40 40 39 41 44 45 45 45 46 48 50 52 53 53 52 51 50 50 50 49 47 47 45 44 42 40 39 39 39 36 33 34 38 38 35 32 31 31
39 41 41 41 40 38 39 42 43 43 43 44 46 50 52 52 53 53 53 52 50 50 50 48 47 46 44 43 42 40 39 39 39 37 36 38 40 40 37 33 31 31
38 40 41 40 37 37 41 43 41 41 43 45 49 51 52 52 53 54 53 52 50 50 49 48 47 46 44 43 42 40 39 39 40 39 39 40 40 38 37 33 31 31
Wind_Direction
292 293 295 297 300 302 305 308 310 313 315 315 314 312 311 311 311 311 312 314 315 315 314 314 313 312 311 310 309 309 309 309 310 311 312 313 314 315 315 314 315 316
288 290 293 297 300 303 305 308 311 312 313 313 313 312 311 311 311 312 313 314 315 315 314 313 312 311 310 310 310 309 309 309 310 311 312 312 314 314 314 314 315 315
286 289 294 298 301 304 306 307 309 311 313 314 314 313 312 311 311 312 313 315 315 315 314 313 312 311 311 311 311 310 310 310 311 311 312 312 313 313 313 313 315 314
288 291 295 299 302 304 305 306 309 313 317 317 314 312 311 311 311 312 313 314 315 314 314 313 312 313 313 313 313 312 312 311 311 311 312 312 312 313 313 314 315 314
293 295 298 301 304 305 307 309 313 317 319 318 314 310 310 310 310 312 313 314 315 315 315 315 315 315 315 315 314 313 312 312 312 312 311 312 312 313 313 314 315 314
298 300 302 304 306 308 312 315 317 318 319 317 313 310 309 309 309 310 311 314 315 316 316 316 316 316 316 315 314 314 313 313 312 312 311 312 312 312 313 314 314 314
301 302 305 310 312 313 316 319 319 318 318 315 311 309 309 308 308 310 314 316 317 317 317 316 316 316 316 316 315 315 314 313 312 311 312 312 312 313 313 313 314 312
303 304 308 315 316 316 318 319 318 317 315 312 309 307 307 307 310 314 316 318 318 318 317 317 317 317 316 316 316 315 314 313 312 313 315 315 313 313 313 312 312 310
305 307 310 315 316 315 316 316 315 314 312 309 307 306 306 307 310 313 316 318 320 320 319 318 317 316 316 316 315 315 314 314 314 315 316 316 314 313 312 312 312 309
307 309 311 313 313 312 311 312 312 311 310 308 305 304 305 307 310 313 317 320 321 320 318 317 317 317 317 316 315 315 315 315 315 316 317 317 316 314 313 312 311 308
308 308 308 310 311 310 309 310 310 310 310 308 305 303 305 308 312 316 319 320 319 318 317 318 319 320 319 318 317 315 315 316 316 316 317 317 316 314 311 309 308 306
307 305 306 309 310 309 307 308 310 310 311 309 306 306 307 310 314 317 319 319 318 317 317 318 319 319 319 319 318 316 315 316 316 317 317 316 314 312 309 305 304 303
302 303 307 310 310 308 305 307 310 311 311 310 308 307 308 311 315 318 318 318 317 317 317 317 318 318 319 319 317 316 315 315 316 317 316 314 312 308 305 303 304 303
299 302 307 308 307 305 304 305 308 310 310 309 308 309 311 314 318 319 318 317 317 317 316 316 317 318 319 318 317 316 315 314 315 315 313 310 307 305 304 305 305 303
298 301 304 305 304 303 303 304 307 310 310 310 310 311 314 317 319 318 318 318 317 317 316 316 317 318 319 318 317 315 314 314 314 313 311 308 306 306 305 305 303 301
298 301 302 303 303 302 302 305 308 310 311 311 311 312 315 317 318 319 319 318 317 316 316 317 318 318 318 317 317 316 315 314 313 312 310 307 305 305 305 304 302 301
296 300 302 302 302 302 303 306 309 311 312 311 310 312 314 317 318 319 319 318 317 317 317 318 319 318 318 317 316 316 314 313 312 311 309 307 306 307 306 305 303 303
292 298 302 302 301 302 305 308 310 310 310 309 309 312 315 317 318 318 318 317 316 317 318 319 319 318 317 316 315 314 313 312 312 310 309 308 309 309 308 305 303 303
288 296 301 301 300 303 306 308 308 308 308 308 311 314 316 317 317 317 316 316 316 317 317 317 318 317 316 315 314 313 312 312 313 311 308 309 311 310 307 306 305 303
285 293 298 298 300 303 306 306 306 306 308 310 313 316 316 316 315 315 315 315 316 316 316 316 316 315 314 313 312 311 312 315 316 313 309 311 314 311 309 309 308 303
285 290 294 296 298 303 305 305 306 308 311 312 314 315 315 314 314 314 314 315 315 316 315 315 315 313 311 311 311 311 314 319 319 313 310 316 318 314 312 313 308 303
283 285 291 295 298 302 305 306 308 311 312 312 312 312 312 313 313 313 314 315 315 315 315 315 314 310 309 311 311 310 314 320 320 312 310 318 320 314 312 313 308 303
281 284 292 296 299 302 305 307 309 310 310 310 310 310 311 312 312 312 314 315 315 315 315 314 311 308 308 310 310 309 310 315 317 312 307 316 322 317 311 309 305 303
283 289 296 298 299 300 303 305 307 307 308 308 308 307 309 311 311 312 314 315 315 314 313 312 309 307 308 309 309 308 306 308 312 310 303 309 319 319 311 305 303 303
289 296 299 299 298 298 301 303 302 303 305 307 307 308 310 311 312 313 314 314 314 313 312 310 308 307 308 308 308 308 306 305 307 306 301 304 311 313 309 304 301 303
295 298 298 296 293 295 301 302 300 301 305 307 309 311 312 313 314 314 314 313 312 311 310 309 308 307 307 307 308 308 307 305 304 303 303 305 305 305 304 303 300 302
Height
5907 5906 5905 5903 5902 5901 5900 5899 5897 5896 5894 5892 5891 5889 5888 5886 5885 5883 5881 5879 5877 5875 5873 5871 5869 5867 5865 5863 5861 5859 5856 5854 5851 5849 5846 5844 5842 5841 5839 5837 5835 5833
5904 5903 5902 5901 5899 5898 5897 5895 5894 5893 5891 5889 5887 5885 5884 5882 5881 5879 5877 5876 5873 5871 5870 5868 5866 5863 5861 5859 5857 5855 5852 5850 5847 5845 5842 5840 5838 5836 5834 5832 5830 5829
5901 5900 5899 5898 5896 5895 5894 5892 5891 5890 5888 5886 5883 5881 5880 5879 5877 5876 5874 5872 5870 5868 5866 5864 5862 5860 5858 5855 5853 5850 5848 5845 5843 5840 5838 5836 5834 5832 5830 5828 5826 5824
5899 5898 5896 5895 5893 5892 5891 5890 5888 5886 5884 5882 5881 5879 5877 5875 5874 5872 5870 5868 5867 5865 5863 5861 5858 5856 5854 5851 5849 5846 5843 5841 5838 5836 5834 5832 5830 5828 5826 5824 5821 5818
5895 5894 5893 5891 5890 5889 5887 5885 5884 5882 5881 5879 5878 5876 5874 5873 5871 5869 5867 5865 5863 5861 5859 5857 5854 5852 5850 5847 5844 5842 5839 5837 5834 5832 5830 5827 5825 5823 5821 5819 5816 5813
5891 5889 5888 5887 5886 5885 5883 5881 5880 5878 5877 5876 5874 5872 5871 5869 5868 5866 5864 5862 5859 5857 5855 5852 5850 5847 5845 5842 5840 5838 5835 5833 5830 5828 5826 5823 5821 5818 5816 5814 5811 5808
5887 5886 5884 5883 5882 5881 5879 5877 5876 5875 5874 5873 5871 5869 5867 5866 5864 5862 5860 5857 5855 5853 5851 5848 5845 5842 5840 5837 5835 5833 5831 5828 5825 5823 5821 5818 5816 5813 5811 5809 5805 5802
5883 5882 5880 5879 5878 5877 5875 5874 5873 5872 5871 5870 5868 5866 5864 5862 5860 5858 5856 5854 5852 5850 5847 5844 5841 5838 5836 5833 5831 5828 5826 5823 5820 5818 5816 5814 5811 5808 5806 5803 5800 5797
5880 5878 5876 5875 5874 5873 5872 5871 5870 5869 5868 5867 5866 5864 5861 5859 5858 5855 5853 5851 5848 5845 5842 5839 5836 5834 5831 5829 5826 5824 5821 5818 5815 5813 5811 5809 5805 5803 5800 5798 5795 5791
5876 5874 5873 5872 5871 5870 5869 5868 5867 5865 5864 5864 5862 5860 5858 5856 5854 5851 5848 5845 5843 5840 5838 5835 5833 5830 5827 5824 5822 5819 5816 5813 5810 5807 5806 5803 5800 5797 5794 5792 5789 5785
5872 5870 5869 5868 5867 5866 5866 5865 5863 5861 5860 5860 5859 5857 5854 5851 5848 5846 5843 5841 5839 5837 5834 5831 5828 5826 5823 5820 5817 5814 5812 5809 5805 5802 5799 5797 5795 5791 5788 5786 5783 5779
5868 5866 5865 5864 5863 5862 5862 5861 5859 5857 5856 5855 5854 5852 5850 5847 5844 5841 5838 5836 5834 5832 5829 5826 5824 5821 5819 5816 5813 5810 5807 5804 5801 5798 5794 5791 5789 5785 5782 5778 5775 5773
5864 5863 5862 5861 5860 5859 5858 5857 5855 5853 5852 5851 5849 5847 5845 5842 5839 5835 5833 5831 5830 5827 5825 5822 5819 5817 5814 5811 5808 5805 5802 5798 5796 5792 5789 5786 5783 5779 5775 5772 5769 5766
5861 5859 5858 5858 5857 5856 5855 5854 5852 5850 5848 5847 5845 5842 5840 5837 5833 5831 5829 5827 5825 5823 5820 5817 5814 5812 5809 5806 5802 5799 5796 5794 5791 5788 5784 5781 5777 5773 5770 5766 5763 5760
5858 5856 5854 5853 5853 5852 5851 5849 5848 5846 5844 5842 5840 5838 5835 5832 5829 5826 5824 5822 5819 5817 5815 5812 5810 5807 5804 5800 5797 5794 5791 5788 5786 5782 5778 5775 5771 5768 5765 5762 5758 5755
5854 5852 5850 5849 5848 5847 5846 5844 5843 5841 5840 5838 5836 5833 5830 5827 5824 5821 5819 5816 5814 5812 5809 5807 5805 5802 5798 5795 5791 5788 5785 5783 5780 5776 5773 5769 5766 5763 5760 5757 5753 5750
5849 5847 5846 5845 5844 5843 5841 5839 5838 5836 5835 5833 5831 5828 5825 5822 5819 5817 5814 5812 5809 5806 5803 5801 5799 5795 5792 5789 5786 5783 5781 5778 5774 5771 5768 5765 5761 5757 5753 5750 5747 5745
5845 5843 5841 5840 5840 5839 5837 5834 5833 5831 5830 5828 5825 5823 5820 5817 5814 5812 5810 5807 5805 5802 5798 5795 5792 5789 5786 5784 5781 5778 5775 5773 5770 5767 5764 5761 5757 5753 5748 5744 5742 5739
5840 5838 5837 5837 5836 5834 5832 5830 5828 5827 5824 5822 5819 5816 5814 5811 5809 5808 5806 5803 5800 5797 5793 5790 5787 5784 5781 5778 5776 5773 5770 5767 5764 5761 5759 5757 5753 5749 5744 5740 5738 5735
5835 5834 5834 5833 5831 5829 5828 5826 5824 5822 5819 5816 5813 5810 5808 5806 5804 5803 5801 5798 5795 5792 5788 5784 5781 5778 5776 5773 5770 5767 5765 5762 5758 5756 5754 5752 5749 5744 5740 5737 5734 5731
5831 5831 5830 5829 5828 5826 5824 5821 5819 5816 5813 5810 5808 5806 5804 5801 5799 5798 5796 5793 5790 5786 5783 5780 5777 5774 5770 5768 5765 5762 5760 5757 5753 5751 5749 5747 5743 5739 5735 5732 5730 5728
5828 5828 5827 5826 5824 5822 5819 5816 5813 5810 5808 5806 5804 5802 5799 5797 5794 5792 5790 5787 5784 5781 5777 5775 5773 5769 5766 5763 5761 5758 5756 5753 5749 5746 5744 5742 5739 5735 5731 5728 5726 5724
5824 5824 5823 5821 5819 5817 5814 5811 5808 5806 5804 5802 5800 5798 5795 5793 5790 5786 5784 5781 5778 5775 5772 5770 5768 5765 5762 5759 5756 5754 5751 5748 5745 5742 5740 5738 5735 5731 5728 5725 5722 5720
5820 5819 5818 5816 5814 5812 5810 5807 5804 5802 5800 5798 5796 5793 5791 5788 5785 5782 5779 5776 5773 5770 5768 5765 5762 5759 5757 5755 5752 5749 5747 5744 5741 5739 5736 5734 5731 5729 5725 5722 5719 5716
5815 5813 5812 5810 5809 5807 5806 5803 5801 5798 5796 5793 5791 5788 5785 5782 5779 5776 5774 5771 5768 5765 5763 5760 5757 5754 5752 5750 5747 5745 5742 5739 5737 5735 5732 5730 5728 5726 5722 5719 5716 5714
5810 5809 5807 5805 5804 5803 5801 5798 5796 5794 5791 5788 5785 5782 5778 5775 5773 5771 5769 5766 5763 5761 5758 5755 5752 5749 5746 5744 5742 5740 5737 5734 5732 5730 5729 5726 5724 5722 5719 5716 5713 5711